Location: Shepherdstown, WV
(39.4326°N, 77.8042°W)
Time: 06:31:22
(UTC-04:00)

SR - Pass Details

Date: 08 August 2021
Orbit: 581 x 874 km, 66.7° (Epoch: 24 September)

Event Time Altitude Azimuth Distance (km) Brightness Sun altitude
Rises 07:23:52 0° 269° (W) 3,403 ? 11.4°
Reaches altitude 10° 07:28:26 10° 302° (WNW) 2,414 ? 12.3°
Maximum altitude 07:30:09 11° 320° (NW) 2,295 ? 12.6°
Drops below altitude 10° 07:31:51 10° 338° (NNW) 2,363 ? 12.9°
Sets 07:36:11 0° 12° (NNE) 3,213 ? 13.7°
